TimeEDT,TemperatureF,Dew PointF,Humidity,Sea Level PressureIn,VisibilityMPH,Wind Direction,Wind SpeedMPH,Gust SpeedMPH,PrecipitationIn,Events,Conditions,WindDirDegrees,DateUTC
12:15 AM,59.0,59.0,100,30.17,10.0,Calm,Calm,-,N/A,,Clear,0,2013-08-18 04:15:00
12:35 AM,59.0,59.0,100,30.17,10.0,Calm,Calm,-,N/A,,Clear,0,2013-08-18 04:35:00
12:55 AM,57.2,57.2,100,30.18,10.0,Calm,Calm,-,N/A,,Clear,0,2013-08-18 04:55:00
1:15 AM,59.0,57.2,94,30.18,10.0,Calm,Calm,-,N/A,,Clear,0,2013-08-18 05:15:00
1:35 AM,59.0,59.0,100,30.19,10.0,Calm,Calm,-,N/A,,Mostly Cloudy,0,2013-08-18 05:35:00
1:55 AM,59.0,59.0,100,30.18,10.0,Calm,Calm,-,N/A,,Mostly Cloudy,0,2013-08-18 05:55:00
2:15 AM,59.0,59.0,100,30.18,7.0,Calm,Calm,-,N/A,,Scattered Clouds,0,2013-08-18 06:15:00
2:35 AM,59.0,59.0,100,30.18,7.0,Calm,Calm,-,N/A,,Clear,0,2013-08-18 06:35:00
2:55 AM,55.4,55.4,100,30.17,4.0,Calm,Calm,-,N/A,,Clear,0,2013-08-18 06:55:00
3:15 AM,55.4,55.4,100,30.17,5.0,Calm,Calm,-,N/A,,Clear,0,2013-08-18 07:15:00
3:35 AM,55.4,55.4,100,30.17,5.0,Calm,Calm,-,N/A,,Clear,0,2013-08-18 07:35:00
3:55 AM,55.4,55.4,100,30.18,3.0,Calm,Calm,-,N/A,,Clear,0,2013-08-18 07:55:00
4:15 AM,55.4,55.4,100,30.17,3.0,Calm,Calm,-,N/A,,Clear,0,2013-08-18 08:15:00
4:35 AM,53.6,53.6,100,30.17,3.0,Calm,Calm,-,N/A,,Clear,0,2013-08-18 08:35:00
4:55 AM,53.6,53.6,100,30.17,7.0,Calm,Calm,-,N/A,,Clear,0,2013-08-18 08:55:00
5:15 AM,53.6,53.6,100,30.17,5.0,Calm,Calm,-,N/A,,Clear,0,2013-08-18 09:15:00
5:35 AM,53.6,53.6,100,30.17,0.2,Calm,Calm,-,N/A,Fog,Fog,0,2013-08-18 09:35:00
5:55 AM,55.4,55.4,100,30.17,0.2,Calm,Calm,-,N/A,Fog,Fog,0,2013-08-18 09:55:00
6:15 AM,53.6,53.6,100,30.17,0.5,Calm,Calm,-,N/A,Fog,Fog,0,2013-08-18 10:15:00
6:35 AM,53.6,53.6,100,30.17,3.0,Calm,Calm,-,N/A,,Clear,0,2013-08-18 10:35:00
6:55 AM,53.6,53.6,100,30.18,5.0,Calm,Calm,-,N/A,,Clear,0,2013-08-18 10:55:00
7:15 AM,53.6,53.6,100,30.19,0.2,Calm,Calm,-,N/A,Fog,Fog,0,2013-08-18 11:15:00
7:35 AM,53.6,53.6,100,30.19,1.5,NE,3.5,-,N/A,,Mist,40,2013-08-18 11:35:00
7:55 AM,53.6,53.6,100,30.20,1.5,Calm,Calm,-,N/A,,Mist,0,2013-08-18 11:55:00
8:15 AM,57.2,57.2,100,30.20,3.0,Calm,Calm,-,N/A,,Clear,0,2013-08-18 12:15:00
8:35 AM,60.8,60.8,100,30.21,7.0,Calm,Calm,-,N/A,,Clear,0,2013-08-18 12:35:00
8:55 AM,62.6,62.6,100,30.21,10.0,Calm,Calm,-,N/A,,Clear,0,2013-08-18 12:55:00
9:15 AM,64.4,62.6,94,30.22,10.0,Calm,Calm,-,N/A,,Clear,0,2013-08-18 13:15:00
9:35 AM,68.0,62.6,83,30.21,10.0,Calm,Calm,-,N/A,,Clear,0,2013-08-18 13:35:00
9:55 AM,69.8,62.6,78,30.21,10.0,Calm,Calm,-,N/A,,Clear,0,2013-08-18 13:55:00
10:15 AM,71.6,60.8,69,30.21,10.0,NE,3.5,-,N/A,,Clear,40,2013-08-18 14:15:00
10:35 AM,71.6,62.6,73,30.21,10.0,NE,6.9,-,N/A,,Clear,40,2013-08-18 14:35:00
10:55 AM,73.4,62.6,69,30.22,10.0,NE,4.6,-,N/A,,Clear,40,2013-08-18 14:55:00
11:15 AM,73.4,59.0,61,30.22,10.0,Calm,Calm,-,N/A,,Clear,0,2013-08-18 15:15:00
11:35 AM,75.2,57.2,53,30.21,10.0,NNE,9.2,-,N/A,,Clear,30,2013-08-18 15:35:00
11:55 AM,73.4,55.4,53,30.21,10.0,NE,5.8,-,N/A,,Scattered Clouds,40,2013-08-18 15:55:00
12:15 PM,75.2,53.6,47,30.20,10.0,NE,6.9,-,N/A,,Mostly Cloudy,50,2013-08-18 16:15:00
12:35 PM,77.0,55.4,47,30.20,10.0,NE,9.2,-,N/A,,Mostly Cloudy,40,2013-08-18 16:35:00
12:55 PM,77.0,53.6,44,30.19,10.0,NE,6.9,-,N/A,,Mostly Cloudy,50,2013-08-18 16:55:00
1:15 PM,77.0,51.8,41,30.19,10.0,Calm,Calm,-,N/A,,Scattered Clouds,0,2013-08-18 17:15:00
1:35 PM,78.8,55.4,44,30.18,10.0,Calm,Calm,-,N/A,,Scattered Clouds,0,2013-08-18 17:35:00
1:55 PM,77.0,53.6,44,30.18,10.0,NE,6.9,-,N/A,,Scattered Clouds,40,2013-08-18 17:55:00
2:15 PM,78.8,53.6,42,30.18,10.0,NE,8.1,-,N/A,,Scattered Clouds,40,2013-08-18 18:15:00
2:35 PM,78.8,51.8,39,30.17,10.0,East,9.2,-,N/A,,Clear,100,2013-08-18 18:35:00
2:55 PM,78.8,51.8,39,30.17,10.0,ESE,10.4,-,N/A,,Clear,120,2013-08-18 18:55:00
3:15 PM,78.8,51.8,39,30.16,10.0,Calm,Calm,-,N/A,,Clear,0,2013-08-18 19:15:00
3:35 PM,78.8,53.6,42,30.15,10.0,SE,4.6,-,N/A,,Clear,130,2013-08-18 19:35:00
3:55 PM,78.8,53.6,42,30.15,10.0,Calm,Calm,-,N/A,,Clear,0,2013-08-18 19:55:00
4:15 PM,78.8,53.6,42,30.15,10.0,ESE,4.6,-,N/A,,Clear,120,2013-08-18 20:15:00
4:35 PM,78.8,53.6,42,30.15,10.0,SE,5.8,-,N/A,,Clear,140,2013-08-18 20:35:00
4:55 PM,78.8,53.6,42,30.14,10.0,SE,3.5,-,N/A,,Clear,130,2013-08-18 20:55:00
5:15 PM,80.6,53.6,39,30.14,10.0,Calm,Calm,-,N/A,,Clear,0,2013-08-18 21:15:00
5:35 PM,78.8,53.6,42,30.14,10.0,Calm,Calm,-,N/A,,Clear,0,2013-08-18 21:35:00
5:55 PM,78.8,55.4,44,30.14,10.0,East,4.6,-,N/A,,Scattered Clouds,100,2013-08-18 21:55:00
6:15 PM,78.8,55.4,44,30.13,10.0,Calm,Calm,-,N/A,,Scattered Clouds,0,2013-08-18 22:15:00
6:35 PM,77.0,53.6,44,30.13,10.0,Calm,Calm,-,N/A,,Clear,0,2013-08-18 22:35:00
6:55 PM,78.8,53.6,42,30.12,10.0,Calm,Calm,-,N/A,,Clear,0,2013-08-18 22:55:00
7:15 PM,78.8,55.4,44,30.13,10.0,Calm,Calm,-,N/A,,Clear,0,2013-08-18 23:15:00
7:35 PM,75.2,59.0,57,30.12,10.0,Calm,Calm,-,N/A,,Clear,0,2013-08-18 23:35:00
7:55 PM,73.4,59.0,61,30.12,10.0,Calm,Calm,-,N/A,,Clear,0,2013-08-18 23:55:00
8:15 PM,71.6,59.0,64,30.12,10.0,NNE,3.5,-,N/A,,Clear,20,2013-08-19 00:15:00
8:35 PM,68.0,62.6,83,30.12,10.0,Calm,Calm,-,N/A,,Clear,0,2013-08-19 00:35:00
8:55 PM,68.0,59.0,73,30.14,10.0,Calm,Calm,-,N/A,,Clear,0,2013-08-19 00:55:00
9:15 PM,66.2,59.0,78,30.14,10.0,Calm,Calm,-,N/A,,Clear,0,2013-08-19 01:15:00
9:35 PM,66.2,59.0,78,30.14,10.0,Calm,Calm,-,N/A,,Clear,0,2013-08-19 01:35:00
9:55 PM,64.4,59.0,83,30.15,10.0,Calm,Calm,-,N/A,,Clear,0,2013-08-19 01:55:00
10:15 PM,62.6,59.0,88,30.15,10.0,Calm,Calm,-,N/A,,Clear,0,2013-08-19 02:15:00
10:35 PM,64.4,59.0,83,30.16,10.0,Calm,Calm,-,N/A,,Clear,0,2013-08-19 02:35:00
10:55 PM,60.8,59.0,94,30.16,10.0,NE,3.5,-,N/A,,Clear,50,2013-08-19 02:55:00
11:15 PM,64.4,57.2,77,30.15,10.0,Calm,Calm,-,N/A,,Clear,0,2013-08-19 03:15:00
11:35 PM,60.8,57.2,88,30.15,10.0,Calm,Calm,-,N/A,,Clear,0,2013-08-19 03:35:00
11:55 PM,60.8,57.2,88,30.16,10.0,Calm,Calm,-,N/A,,Clear,0,2013-08-19 03:55:00